Regional Weather Roundup
Issued by NWS Columbia, SC

Home | Current Version | Previous Version | Text Only | Print | Product List | Glossary On
Versions: 1 2 3 4 5 6 7 8 9 10 11 12 13 14 15 16 17 18 19 20 21 22 23 24 25 26 27 28 29 30 31 32 33 34 35 36 37 38 39 40 41 42 43 44 45 46 47 48 49 50
000
ASUS42 KCAE 161910
RWRCAE
REGIONAL WEATHER ROUNDUP
NATIONAL WEATHER SERVICE COLUMBIA SC
300 PM EDT TUE SEP 16 2014

NOTE: "FAIR" INDICATES FEW OR NO CLOUDS BELOW 12,000 FEET WITH NO
SIGNIFICANT WEATHER AND/OR OBSTRUCTIONS TO VISIBILITY.

NOT ALL STATIONS ARE QUALITY CONTROLLED BY THE NATIONAL
WEATHER SERVICE. USE DATA WITH CAUTION...ESPECIALLY
DEWPOINT OBSERVATIONS.

SCZ001>056-GAZ040-063>065-077-162000-
...UPSTATE SOUTH CAROLINA...

CITY           SKY/WX    TMP DP  RH WIND       PRES   REMARKS
ANDERSON       MOSUNNY   86  66  51 NW6       30.00F
LIBERTY        MOCLDY    88  69  53 W5        30.00F
SPARTANBURG    FAIR      88  64  45 N6        29.99F
CLEMSON        MOSUNNY   88  64  44 CALM      30.02F
GREENVILLE     MOSUNNY   86  65  49 VRB7      30.02F
GREENWOOD      MOSUNNY   88  66  48 CALM      30.01F
GREER          MOSUNNY   84  64  50 VRB3      30.00F
ROCK HILL      MOSUNNY   85  67  54 NW3       30.00F
CHESTER        FAIR      84  63  48 CALM      30.04F
LAURENS        FAIR      86  55  35 N5        30.01F


...CENTRAL SOUTH CAROLINA...

CITY           SKY/WX    TMP DP  RH WIND       PRES   REMARKS
COLUMBIA APT   MOSUNNY   89  67  47 VRB5      29.97F
COLUMBIA OWENS PTSUNNY   86  68  54 NE3       29.98F
DARLINGTON     MOSUNNY   86  68  54 N7        29.99F
FLORENCE       MOSUNNY   86  69  56 N3        29.97F
MCENTIRE ANGB  MOSUNNY   87  68  53 VRB2      29.98F
ORANGEBURG     MOSUNNY   87  69  54 W5        29.97F
SUMTER SHAW    MOSUNNY   84  68  58 NE5       29.96F
NEWBERRY       FAIR      86  63  45 N3        30.01F
AIKEN          MOCLDY    86  72  62 W6        30.02F
BARNWELL       FAIR      88  72  58 N3        29.98F
MANNING        MOCLDY    84  72  65 NW6       29.97F
CAMDEN         FAIR      86  68  54 CALM      29.99F
LANCASTER      FAIR      84  68  58 CALM      29.99F
WINNSBORO      FAIR      86  68  54 CALM      29.99F


...EASTERN AND COASTAL SOUTH CAROLINA...

CITY           SKY/WX    TMP DP  RH WIND       PRES   REMARKS
MYRTLE BEACH   MOSUNNY   84  70  61 N10       29.97F
N MYRTLE BCH   MOSUNNY   86  69  56 VRB5      29.96F
CONWAY         FAIR      82  70  65 NE7       29.97F HAZE
HARTSVILLE     MOCLDY    86  45  23 CALM      29.99F
FLORENCE       MOSUNNY   86  69  56 N3        29.97F
DARLINGTON     MOSUNNY   86  68  54 N7        29.99F
CHARLESTON APT PTSUNNY   84  74  71 SE13      29.96F
MOUNT PLEASANT LGT RAIN  75  73  94 SE5       29.97F
WALTERBORO     PTCLDY    86  68  54 NW5       29.97F
BEAUFORT       PTSUNNY   90  71  53 SW3       29.96F THUNDER HX  96


...EASTERN GEORGIA...

CITY           SKY/WX    TMP DP  RH WIND       PRES   REMARKS
AUGUSTA BUSH F MOSUNNY   88  69  53 CALM      29.97F
AUGUSTA DANIEL SUNNY     85  69  58 VRB3      29.99F
THOMSON        MOSUNNY   87  76  70 SW3       30.04F HX  98
WASHINGTON     FAIR      86  77  74 CALM      30.00F HX  97
SYLVANIA       PTCLDY    88  75  65 CALM      29.99F HX  97
SAVANNAH       PTSUNNY   89  72  56 W7        29.97F HX  96


...SOUTHERN NORTH CAROLINA...

CITY           SKY/WX    TMP DP  RH WIND       PRES   REMARKS
CHARLOTTE      MOSUNNY   85  64  49 CALM      30.00F
MONROE         CLOUDY    83  66  56 E3        29.99F
WADESBORO      MOCLDY    85  63  48 W3        29.98F
ROCKINGHAM     MOCLDY    83  66  57 NW3       29.98F
RUTHERFORDTON  MOSUNNY   82  69  64 CALM      30.01F
ASHEVILLE      MOSUNNY   80  64  58 VRB6      30.07F

$$


USA.gov is the U.S. government's official web portal to all federal, state and local government web resources and services.